Showing default

USA 310, 46918

Orbit data source: McCants

USA 310, 46918 is a payload satellite owned by NRO (US) that was launched on Fri, 13 Nov 2020 UTC via an ATLAS V 531 launch vehicle from the Air Force Eastern Test Range (AFETR). Payloads include a variety of satellites, spacecraft, and rockets equipped with specific instruments for various scientific and technological missions. These include communications satellites like Starlink; space stations such as the ISS; scientific satellites like the Hubble; Earth observation satellites from companies like Planet Labs, Umbra, and HawkEye 360; GPS; miniature CubeSats for education and research; and military/defense satellites.

Loading next visibility...
USA 310 details
Identifier
46918, 2020-083A
Orbit
Active
Last TLE update1 year ago
Origin
Flag of USNRO (US)
ManufacturerLMSS Denver
MissionOperational Defense Classified
Bus & MotorUNK, Unknown motor
Mass~7,000 kg wet, ~5,000 kg dry
Launch date (UTC)
2020-11-13 (4 years ago)
Launch vehicle
ATLAS V 531
Launch site
Air Force Eastern Test Range (AFETR)
Object type
Payload
Rocket body
Debris
Shape & HBRBox + 1 Dish, 15 m
Radar Cross Section24.000 m²

Expand to show TLE details & history

TLE from 1 year ago
USA 310
1 46918U 20083A   23250.72167034 0.00000000  00000-0  00000-0 0    06
2 46918  58.5225 136.1602 0006695 326.5223  33.4777  3.76176694    05
Epoch: 2023-09-07T17:19Z
Definitive object data (Epoch: 2023-09-07T17:19:12.317Z)
Latitude-0.01633°
Longitude-110.17449°
Altitude11,076.566 km
Speed4.78 km/s
True Right ascension09h 04m 37s
True Declination0° 00' 59"
Sunlit
Object was in daylight at TLE epoch
Visualization TLE readout
Latitude57.82463°
Longitude-107.62167°
Altitude11,094.655 km
Speed4.779 km/s
Apparent Right ascension08h 54m 11s
Apparent Declination37° 10' 43"
Sunlit
Object is in daylight
Visualization observer readout
Local Sidereal Time20:14:47
Azimuth351.98° N
Elevation-12.377°
Doppler factor1
Orbital elements
Apogee altitude11,097.21 km
Perigee altitude11,073.826 km
Semi-major axis17,463.655 km
Eccentricity0.0006695
Inclination58.5225°
RAAN136.1602°
Arg. of periapsis326.5223°
True anomaly33.52005°
Mean anomaly33.4777°
Eccentric anomaly33.49887°
Mean motion0.94046 °/min
BSTARUnknown
Orbital period382.79 mins
Loading maneuver chart data...
Loading historical data...
Loading historical data...
Loading historical data...
Loading historical data...
Loading historical data...
Loading historical data...
Loading historical data...
Other satellites on launch #83 in the year 2020 (2020-11-13 UTC)

USA 310 Visibility forecast

Observer location: undefined°, undefined

Span
Click to sort rows by Start time (UTC) header in descending order
Start Az.
Max El. time (UTC)
Max El. Az.
Max El.
End time (UTC)
End Az.
85 mins2024-12-27 01:44:53.909Z124.253° SE2024-12-27 02:28:53.909Z79.772° E22.21°2024-12-27 03:09:53.909Z40.096° NE
151 mins2024-12-27 08:13:53.909Z244.047° WSW2024-12-27 09:27:53.909Z339.267° N42.089°2024-12-27 10:44:53.909Z77.467° E
125 mins2024-12-27 16:01:53.909Z321.055° NNW2024-12-27 17:02:53.909Z259.088° W39.266°2024-12-27 18:06:53.909Z189.837° SSW
|